RYR19KL GCLP-LEVC

Flight info

Callsign RYR19KL
Flight time 2h 7m
Altitude 34000
Route KORAL UG5 SONSO DCT NIRAL UN871 OSDAM UM985 BARPA DCT XAVIR DCT PIMOS DCT RIXUR DCT PEPAS DCT ARPEX DCT KOSEL DCT BUDIT DCT ETURA DCT XEBAR DCT POBOS DCT ASTRO
Aircraft B738/M-SDE2E3FGHIRWXY/LB1

Departure

Time 2026-05-08 15:47
Airport Gran Canaria Airport (GCLP)

Arrival

Time 2026-05-08 17:55
Airport Valencia Airport (LEVC)
Time Latitude Longitude Altitude Speed Heading
2026-05-08 15:26 27.93858 -15.38822 84 ft 0 kts 291°
2026-05-08 15:39 27.93853 -15.38808 88 ft 4 kts 289°
2026-05-08 15:39 27.93845 -15.38779 86 ft 4 kts 281°
2026-05-08 15:39 27.93843 -15.38749 87 ft 4 kts 262°
2026-05-08 15:39 27.93851 -15.38725 85 ft 3 kts 208°
2026-05-08 15:40 27.93855 -15.38722 88 ft 0 kts 201°
2026-05-08 15:42 27.93847 -15.38726 85 ft 3 kts 201°
2026-05-08 15:42 27.93816 -15.38739 84 ft 7 kts 201°
2026-05-08 15:42 27.93748 -15.38769 83 ft 14 kts 201°
2026-05-08 15:43 27.93641 -15.38815 87 ft 19 kts 201°
2026-05-08 15:43 27.93501 -15.38867 85 ft 22 kts 189°
2026-05-08 15:43 27.93405 -15.38779 73 ft 17 kts 152°
2026-05-08 15:43 27.93291 -15.38803 64 ft 17 kts 201°
2026-05-08 15:44 27.93181 -15.38853 69 ft 17 kts 207°
2026-05-08 15:44 27.93061 -15.38915 68 ft 21 kts 201°
2026-05-08 15:44 27.92904 -15.38983 81 ft 27 kts 201°
2026-05-08 15:44 27.92725 -15.39063 85 ft 27 kts 202°
2026-05-08 15:45 27.92555 -15.39138 93 ft 25 kts 201°
2026-05-08 15:45 27.92389 -15.39210 97 ft 27 kts 201°
2026-05-08 15:45 27.92212 -15.39288 98 ft 27 kts 201°
2026-05-08 15:45 27.92032 -15.39300 91 ft 25 kts 176°
2026-05-08 15:46 27.91936 -15.39227 88 ft 13 kts 73°
2026-05-08 15:46 27.92015 -15.39178 86 ft 14 kts 21°
2026-05-08 15:46 27.92212 -15.39090 81 ft 62 kts 21°
2026-05-08 15:46 27.92833 -15.38816 64 ft 128 kts 21°
2026-05-08 15:47 27.93806 -15.38373 261 ft 163 kts 23°
2026-05-08 15:47 27.94882 -15.37861 931 ft 173 kts 21°
2026-05-08 15:47 27.96085 -15.37338 1425 ft 195 kts 20°
2026-05-08 15:47 27.97423 -15.36766 1774 ft 219 kts 20°
2026-05-08 15:48 28.00570 -15.35429 2305 ft 260 kts 19°
2026-05-08 15:48 28.02291 -15.34698 2951 ft 267 kts 19°
2026-05-08 15:48 28.04034 -15.33956 3834 ft 268 kts 19°
2026-05-08 15:49 28.05793 -15.33196 4641 ft 274 kts 18°
2026-05-08 15:49 28.07586 -15.32415 5397 ft 278 kts 18°
2026-05-08 15:49 28.09407 -15.31623 6189 ft 283 kts 17°
2026-05-08 15:49 28.11275 -15.30812 6828 ft 291 kts 17°
2026-05-08 15:50 28.13172 -15.29977 7576 ft 294 kts 20°
2026-05-08 15:50 28.14845 -15.28587 8269 ft 308 kts 48°
2026-05-08 15:50 28.16095 -15.26596 8994 ft 314 kts 53°
2026-05-08 15:50 28.17311 -15.24510 9662 ft 320 kts 53°
2026-05-08 15:51 28.18537 -15.22376 10310 ft 326 kts 53°
2026-05-08 15:51 28.19795 -15.20185 10723 ft 341 kts 53°
2026-05-08 15:51 28.21140 -15.17856 10876 ft 364 kts 54°
2026-05-08 15:51 28.22563 -15.15397 11168 ft 380 kts 54°
2026-05-08 15:52 28.24028 -15.12870 11722 ft 386 kts 54°
2026-05-08 15:52 28.25510 -15.10313 12374 ft 390 kts 54°
2026-05-08 15:52 28.27006 -15.07737 13037 ft 393 kts 54°
2026-05-08 15:52 28.28497 -15.05171 13649 ft 397 kts 54°
2026-05-08 15:53 28.30026 -15.02540 14199 ft 402 kts 54°
2026-05-08 15:53 28.31573 -14.99881 14714 ft 407 kts 54°
2026-05-08 15:53 28.33142 -14.97182 15237 ft 412 kts 54°
2026-05-08 15:53 28.34727 -14.94452 15761 ft 416 kts 54°
2026-05-08 15:54 28.36329 -14.91694 16322 ft 420 kts 54°
2026-05-08 15:54 28.37940 -14.88917 16864 ft 424 kts 54°
2026-05-08 15:54 28.39576 -14.86096 17358 ft 429 kts 54°
2026-05-08 15:54 28.41228 -14.83245 17847 ft 434 kts 54°
2026-05-08 15:55 28.42894 -14.80368 18341 ft 439 kts 54°
2026-05-08 15:55 28.46282 -14.74512 19228 ft 447 kts 54°
2026-05-08 15:55 28.47997 -14.71543 19677 ft 451 kts 54°
2026-05-08 15:56 28.49727 -14.68547 20121 ft 455 kts 54°
2026-05-08 15:56 28.51466 -14.65534 20563 ft 459 kts 54°
2026-05-08 15:56 28.53225 -14.62485 20998 ft 463 kts 54°
2026-05-08 15:56 28.54996 -14.59410 21425 ft 467 kts 54°
2026-05-08 15:57 28.56782 -14.56310 21845 ft 470 kts 54°
2026-05-08 15:57 28.58582 -14.53182 22233 ft 474 kts 54°
2026-05-08 15:57 28.60395 -14.50028 22623 ft 478 kts 54°
2026-05-08 15:57 28.62222 -14.46849 23022 ft 482 kts 54°
2026-05-08 15:58 28.64061 -14.43645 23421 ft 485 kts 54°
2026-05-08 15:58 28.65913 -14.40417 23758 ft 489 kts 54°
2026-05-08 15:58 28.67801 -14.37123 24100 ft 491 kts 54°
2026-05-08 15:58 28.69647 -14.33900 24461 ft 493 kts 54°
2026-05-08 15:59 28.71545 -14.30584 24808 ft 495 kts 54°
2026-05-08 15:59 28.73405 -14.27330 25128 ft 498 kts 54°
2026-05-08 15:59 28.75301 -14.24013 25444 ft 501 kts 54°
2026-05-08 15:59 28.77205 -14.20678 25756 ft 503 kts 54°
2026-05-08 16:00 28.79118 -14.17326 26105 ft 506 kts 54°
2026-05-08 16:00 28.81044 -14.13948 26341 ft 510 kts 54°
2026-05-08 16:00 28.82984 -14.10543 26620 ft 513 kts 54°
2026-05-08 16:00 28.84931 -14.07121 26941 ft 515 kts 54°
2026-05-08 16:01 28.86883 -14.03688 27267 ft 517 kts 54°
2026-05-08 16:01 28.88842 -14.00241 27556 ft 519 kts 54°
2026-05-08 16:01 28.90809 -13.96775 27822 ft 522 kts 54°
2026-05-08 16:01 28.92786 -13.93290 28071 ft 524 kts 54°
2026-05-08 16:02 28.94773 -13.89786 28326 ft 527 kts 54°
2026-05-08 16:02 28.96767 -13.86264 28594 ft 529 kts 54°
2026-05-08 16:02 28.98767 -13.82729 28859 ft 531 kts 54°
2026-05-08 16:02 29.00772 -13.79183 29151 ft 532 kts 54°
2026-05-08 16:03 29.02777 -13.75632 29412 ft 534 kts 54°
2026-05-08 16:03 29.04795 -13.72056 29660 ft 536 kts 54°
2026-05-08 16:03 29.06820 -13.68465 29912 ft 538 kts 54°
2026-05-08 16:03 29.08846 -13.64867 30228 ft 538 kts 54°
2026-05-08 16:04 29.10867 -13.61275 30568 ft 536 kts 54°
2026-05-08 16:04 29.12882 -13.57691 30892 ft 535 kts 54°
2026-05-08 16:04 29.14895 -13.54108 31181 ft 536 kts 54°
2026-05-08 16:04 29.16918 -13.50509 31357 ft 539 kts 54°
2026-05-08 16:05 29.18996 -13.46942 31633 ft 538 kts 52°
2026-05-08 16:05 29.21131 -13.43444 32023 ft 534 kts 51°
2026-05-08 16:05 29.23284 -13.39984 32334 ft 533 kts 51°
2026-05-08 16:05 29.25443 -13.36526 32564 ft 534 kts 51°
2026-05-08 16:06 29.27600 -13.33052 32757 ft 536 kts 51°
2026-05-08 16:06 29.29719 -13.29610 33003 ft 536 kts 51°
2026-05-08 16:06 29.31881 -13.26076 33277 ft 535 kts 51°
2026-05-08 16:06 29.34011 -13.22578 33547 ft 535 kts 51°
2026-05-08 16:07 29.36140 -13.19072 33790 ft 535 kts 51°
2026-05-08 16:07 29.38231 -13.15625 33987 ft 535 kts 51°
2026-05-08 16:07 29.42515 -13.08563 33981 ft 543 kts 51°
2026-05-08 16:08 29.46851 -13.01408 33989 ft 549 kts 51°
2026-05-08 16:08 29.51238 -12.94155 33990 ft 555 kts 52°
2026-05-08 16:09 29.54895 -12.88094 33979 ft 556 kts 52°
2026-05-08 16:09 29.60047 -12.79544 33974 ft 556 kts 52°
2026-05-08 16:10 29.64443 -12.72234 33968 ft 555 kts 52°
2026-05-08 16:10 29.68824 -12.64937 33970 ft 554 kts 52°
2026-05-08 16:11 29.73189 -12.57656 33973 ft 553 kts 52°
2026-05-08 16:11 29.77530 -12.50358 33974 ft 552 kts 53°
2026-05-08 16:12 29.81822 -12.43099 34029 ft 552 kts 53°
2026-05-08 16:12 29.86146 -12.35778 33979 ft 552 kts 53°
2026-05-08 16:13 29.90464 -12.28457 33966 ft 552 kts 53°
2026-05-08 16:13 29.94776 -12.21136 33965 ft 552 kts 53°
2026-05-08 16:14 29.99082 -12.13811 33978 ft 551 kts 53°
2026-05-08 16:14 30.03841 -12.06961 33974 ft 544 kts 40°
2026-05-08 16:15 30.09309 -12.00934 33957 ft 543 kts 39°
2026-05-08 16:15 30.14805 -11.94946 33979 ft 543 kts 39°
2026-05-08 16:16 30.20260 -11.88896 33966 ft 544 kts 40°
2026-05-08 16:16 30.25686 -11.82803 33965 ft 544 kts 40°
2026-05-08 16:17 30.30228 -11.77683 33975 ft 544 kts 40°
2026-05-08 16:17 30.35647 -11.71571 33963 ft 544 kts 40°
2026-05-08 16:18 30.41025 -11.65501 33971 ft 544 kts 40°
2026-05-08 16:18 30.46445 -11.59376 33981 ft 545 kts 40°
2026-05-08 16:19 30.51875 -11.53231 33976 ft 546 kts 40°
2026-05-08 16:19 30.57307 -11.47072 33966 ft 546 kts 40°
2026-05-08 16:20 30.62742 -11.40899 33964 ft 547 kts 40°
2026-05-08 16:20 30.68177 -11.34714 33965 ft 547 kts 40°
2026-05-08 16:21 30.73605 -11.28529 33955 ft 546 kts 40°
2026-05-08 16:21 30.79026 -11.22341 33965 ft 547 kts 41°
2026-05-08 16:22 30.84448 -11.16142 33970 ft 546 kts 41°
2026-05-08 16:22 30.89865 -11.09937 33962 ft 546 kts 41°
2026-05-08 16:23 30.95277 -11.03729 33963 ft 546 kts 41°
2026-05-08 16:23 31.00685 -10.97514 33962 ft 546 kts 41°
2026-05-08 16:24 31.06089 -10.91294 34007 ft 545 kts 41°
2026-05-08 16:24 31.11495 -10.85062 33967 ft 547 kts 41°
2026-05-08 16:25 31.16903 -10.78815 33963 ft 547 kts 41°
2026-05-08 16:25 31.22314 -10.72555 33958 ft 548 kts 41°
2026-05-08 16:26 31.27726 -10.66283 33964 ft 548 kts 41°
2026-05-08 16:26 31.33139 -10.59999 33955 ft 548 kts 41°
2026-05-08 16:27 31.38550 -10.53706 33979 ft 549 kts 42°
2026-05-08 16:27 31.43962 -10.47402 33969 ft 550 kts 42°
2026-05-08 16:28 31.49346 -10.41119 33953 ft 550 kts 42°
2026-05-08 16:28 31.54804 -10.34739 33953 ft 550 kts 42°
2026-05-08 16:29 31.60225 -10.28392 33952 ft 551 kts 42°
2026-05-08 16:29 31.65644 -10.22035 33952 ft 551 kts 42°
2026-05-08 16:30 31.71064 -10.15666 33957 ft 551 kts 42°
2026-05-08 16:30 31.76448 -10.09329 33954 ft 552 kts 42°
2026-05-08 16:31 31.81866 -10.02939 33948 ft 552 kts 43°
2026-05-08 16:31 31.87274 -9.96550 33948 ft 552 kts 43°
2026-05-08 16:32 31.92685 -9.90148 33945 ft 551 kts 43°
2026-05-08 16:32 31.98091 -9.83738 33974 ft 552 kts 43°
2026-05-08 16:33 32.03500 -9.77315 33945 ft 552 kts 43°
2026-05-08 16:33 32.08906 -9.70883 33943 ft 552 kts 43°
2026-05-08 16:34 32.14309 -9.64444 33940 ft 552 kts 43°
2026-05-08 16:34 32.19704 -9.58002 33940 ft 552 kts 43°
2026-05-08 16:35 32.25102 -9.51546 33942 ft 552 kts 43°
2026-05-08 16:35 32.30502 -9.45076 33912 ft 553 kts 43°
2026-05-08 16:36 32.35898 -9.38598 33930 ft 553 kts 43°
2026-05-08 16:36 32.41291 -9.32113 33943 ft 553 kts 44°
2026-05-08 16:37 32.46681 -9.25619 33932 ft 553 kts 44°
2026-05-08 16:37 32.52068 -9.19116 33943 ft 553 kts 44°
2026-05-08 16:38 32.57457 -9.12601 33964 ft 554 kts 44°
2026-05-08 16:38 32.62857 -9.06060 33916 ft 555 kts 44°
2026-05-08 16:39 32.68250 -8.99515 33922 ft 555 kts 44°
2026-05-08 16:39 32.73646 -8.92953 33921 ft 555 kts 44°
2026-05-08 16:40 32.79005 -8.86426 33925 ft 555 kts 44°
2026-05-08 16:40 32.84396 -8.79847 33921 ft 555 kts 44°
2026-05-08 16:41 32.89790 -8.73252 33917 ft 557 kts 44°
2026-05-08 16:42 32.97881 -8.63336 33905 ft 556 kts 44°
2026-05-08 16:42 33.03271 -8.56715 33913 ft 557 kts 44°
2026-05-08 16:43 33.08653 -8.50091 33907 ft 557 kts 44°
2026-05-08 16:43 33.14038 -8.43450 33906 ft 557 kts 44°
2026-05-08 16:44 33.19500 -8.36903 33902 ft 555 kts 38°
2026-05-08 16:44 33.25804 -8.31705 33915 ft 548 kts 27°
2026-05-08 16:45 33.32317 -8.26953 33898 ft 548 kts 27°
2026-05-08 16:45 33.38770 -8.22190 33896 ft 549 kts 28°
2026-05-08 16:46 33.45239 -8.17322 33919 ft 550 kts 28°
2026-05-08 16:46 33.51695 -8.12421 33905 ft 549 kts 28°
2026-05-08 16:47 33.58184 -8.07489 33904 ft 548 kts 28°
2026-05-08 16:47 33.64572 -8.02632 33902 ft 548 kts 28°
2026-05-08 16:48 33.71005 -7.97735 33931 ft 547 kts 28°
2026-05-08 16:48 33.77441 -7.92827 33911 ft 548 kts 28°
2026-05-08 16:49 33.83878 -7.87910 33903 ft 548 kts 28°
2026-05-08 16:49 33.90315 -7.82982 33905 ft 548 kts 28°
2026-05-08 16:50 33.96753 -7.78045 33910 ft 549 kts 28°
2026-05-08 16:50 34.03201 -7.73092 33917 ft 550 kts 28°
2026-05-08 16:51 34.09651 -7.68128 33917 ft 551 kts 29°
2026-05-08 16:51 34.16122 -7.63138 33912 ft 552 kts 29°
2026-05-08 16:52 34.22590 -7.58141 33881 ft 551 kts 29°
2026-05-08 16:52 34.29051 -7.53140 33911 ft 552 kts 29°
2026-05-08 16:53 34.38750 -7.45617 33907 ft 553 kts 29°
2026-05-08 16:53 34.45221 -7.40585 33903 ft 553 kts 29°
2026-05-08 16:54 34.51691 -7.35544 33934 ft 553 kts 29°
2026-05-08 16:54 34.58166 -7.30492 33905 ft 554 kts 29°
2026-05-08 16:55 34.64643 -7.25426 33904 ft 554 kts 29°
2026-05-08 16:55 34.71123 -7.20350 33878 ft 554 kts 29°
2026-05-08 16:56 34.77585 -7.15278 33893 ft 553 kts 29°
2026-05-08 16:56 34.84065 -7.10182 33902 ft 554 kts 29°
2026-05-08 16:57 34.90535 -7.05085 33901 ft 555 kts 29°
2026-05-08 16:57 34.97015 -6.99969 33899 ft 555 kts 30°
2026-05-08 16:58 35.03453 -6.94877 33896 ft 555 kts 30°
2026-05-08 16:58 35.09939 -6.89738 33897 ft 556 kts 30°
2026-05-08 16:59 35.16431 -6.84582 33902 ft 557 kts 30°
2026-05-08 16:59 35.22925 -6.79415 33885 ft 557 kts 30°
2026-05-08 17:00 35.29418 -6.74236 33892 ft 557 kts 31°
2026-05-08 17:00 35.35253 -6.67942 33900 ft 562 kts 49°
2026-05-08 17:01 35.39591 -6.60013 33901 ft 560 kts 64°
2026-05-08 17:01 35.43368 -6.51646 33869 ft 562 kts 62°
2026-05-08 17:02 35.47373 -6.43419 33860 ft 563 kts 59°
2026-05-08 17:02 35.51551 -6.35290 33865 ft 563 kts 59°
2026-05-08 17:03 35.55720 -6.27143 33866 ft 564 kts 60°
2026-05-08 17:03 35.59155 -6.20338 33859 ft 564 kts 60°
2026-05-08 17:04 35.63277 -6.12126 33859 ft 565 kts 60°
2026-05-08 17:04 35.67398 -6.03903 33851 ft 564 kts 60°
2026-05-08 17:05 35.71505 -5.95697 33850 ft 564 kts 60°
2026-05-08 17:05 35.75389 -5.87338 33861 ft 561 kts 66°
2026-05-08 17:06 35.78692 -5.78647 33858 ft 560 kts 68°
2026-05-08 17:06 35.82006 -5.69964 33835 ft 560 kts 67°
2026-05-08 17:07 35.85434 -5.61341 33891 ft 561 kts 66°
2026-05-08 17:07 35.88939 -5.52742 33895 ft 561 kts 65°
2026-05-08 17:08 35.92431 -5.44140 33927 ft 561 kts 66°
2026-05-08 17:08 35.95877 -5.35579 33906 ft 560 kts 66°
2026-05-08 17:09 35.99330 -5.26974 33907 ft 559 kts 66°
2026-05-08 17:09 36.02827 -5.18396 33911 ft 559 kts 64°
2026-05-08 17:10 36.06421 -5.09877 33916 ft 559 kts 64°
2026-05-08 17:10 36.09997 -5.01348 33918 ft 559 kts 65°
2026-05-08 17:11 36.13556 -4.92808 33898 ft 558 kts 63°
2026-05-08 17:11 36.18060 -4.85006 33923 ft 558 kts 45°
2026-05-08 17:12 36.23493 -4.78141 33928 ft 558 kts 43°
2026-05-08 17:12 36.28955 -4.71290 33924 ft 559 kts 44°
2026-05-08 17:13 36.34360 -4.64364 33929 ft 560 kts 45°
2026-05-08 17:13 36.39743 -4.57379 33911 ft 560 kts 45°
2026-05-08 17:14 36.45117 -4.50383 33929 ft 560 kts 45°
2026-05-08 17:14 36.50495 -4.43378 33933 ft 560 kts 45°
2026-05-08 17:15 36.55874 -4.36363 33931 ft 560 kts 45°
2026-05-08 17:15 36.61249 -4.29338 33937 ft 560 kts 45°
2026-05-08 17:16 36.66619 -4.22304 33937 ft 560 kts 45°
2026-05-08 17:16 36.71988 -4.15255 33949 ft 561 kts 45°
2026-05-08 17:17 36.77353 -4.08197 33942 ft 561 kts 45°
2026-05-08 17:17 36.82724 -4.01114 33938 ft 562 kts 45°
2026-05-08 17:18 36.88096 -3.94015 33938 ft 562 kts 45°
2026-05-08 17:18 36.93462 -3.86909 33980 ft 561 kts 45°
2026-05-08 17:19 36.98825 -3.79790 33908 ft 563 kts 45°
2026-05-08 17:19 37.04154 -3.72700 33916 ft 563 kts 45°
2026-05-08 17:20 37.09510 -3.65560 33931 ft 562 kts 45°
2026-05-08 17:20 37.14911 -3.58469 33925 ft 562 kts 44°
2026-05-08 17:21 37.20373 -3.51453 33923 ft 563 kts 44°
2026-05-08 17:21 37.25835 -3.44391 33927 ft 564 kts 44°
2026-05-08 17:22 37.31290 -3.37306 33901 ft 564 kts 44°
2026-05-08 17:22 37.36739 -3.30215 33904 ft 564 kts 44°
2026-05-08 17:23 37.42180 -3.23119 33896 ft 563 kts 44°
2026-05-08 17:23 37.47617 -3.16017 33905 ft 563 kts 44°
2026-05-08 17:24 37.53044 -3.08908 33900 ft 563 kts 44°
2026-05-08 17:24 37.58467 -3.01791 33878 ft 562 kts 43°
2026-05-08 17:25 37.63878 -2.94692 33886 ft 562 kts 43°
2026-05-08 17:25 37.69258 -2.87627 33935 ft 562 kts 43°
2026-05-08 17:26 37.74676 -2.80492 33909 ft 563 kts 43°
2026-05-08 17:26 37.80089 -2.73331 33921 ft 564 kts 44°
2026-05-08 17:27 37.85497 -2.66142 33875 ft 564 kts 43°
2026-05-08 17:27 37.90892 -2.58955 33916 ft 563 kts 43°
2026-05-08 17:28 37.96282 -2.51765 33896 ft 563 kts 44°
2026-05-08 17:28 38.01662 -2.44578 33921 ft 562 kts 44°
2026-05-08 17:29 38.07045 -2.37380 33946 ft 563 kts 44°
2026-05-08 17:29 38.12430 -2.30160 33929 ft 563 kts 44°
2026-05-08 17:30 38.17915 -2.23106 33958 ft 557 kts 34°
2026-05-08 17:30 38.24398 -2.18058 33193 ft 539 kts 15°
2026-05-08 17:31 38.27868 -2.16485 32521 ft 525 kts
2026-05-08 17:31 38.31409 -2.15459 31846 ft 520 kts
2026-05-08 17:31 38.34943 -2.14409 31110 ft 521 kts
2026-05-08 17:31 38.38470 -2.13507 30579 ft 514 kts
2026-05-08 17:32 38.41952 -2.12540 30084 ft 511 kts
2026-05-08 17:32 38.45386 -2.11432 29522 ft 506 kts
2026-05-08 17:32 38.48743 -2.10077 28963 ft 509 kts 18°
2026-05-08 17:32 38.51856 -2.07931 28473 ft 511 kts 29°
2026-05-08 17:33 38.54651 -2.05140 27950 ft 510 kts 41°
2026-05-08 17:33 38.56989 -2.01747 27457 ft 507 kts 51°
2026-05-08 17:33 38.59115 -1.98179 26954 ft 502 kts 52°
2026-05-08 17:33 38.61196 -1.94618 26453 ft 498 kts 52°
2026-05-08 17:34 38.63273 -1.91103 25954 ft 493 kts 52°
2026-05-08 17:34 38.65353 -1.87640 25457 ft 489 kts 51°
2026-05-08 17:34 38.67432 -1.84225 24967 ft 484 kts 51°
2026-05-08 17:34 38.69499 -1.80842 24481 ft 480 kts 51°
2026-05-08 17:35 38.71548 -1.77483 23979 ft 477 kts 52°
2026-05-08 17:35 38.73582 -1.74141 23473 ft 474 kts 52°
2026-05-08 17:35 38.75599 -1.70818 22898 ft 471 kts 52°
2026-05-08 17:35 38.77596 -1.67522 22371 ft 466 kts 52°
2026-05-08 17:36 38.79546 -1.64300 21895 ft 461 kts 52°
2026-05-08 17:36 38.81523 -1.61030 21406 ft 457 kts 52°
2026-05-08 17:36 38.83461 -1.57821 20928 ft 452 kts 52°
2026-05-08 17:36 38.85354 -1.54685 20470 ft 448 kts 52°
2026-05-08 17:37 38.87255 -1.51532 19991 ft 445 kts 52°
2026-05-08 17:37 38.89139 -1.48404 19552 ft 441 kts 52°
2026-05-08 17:37 38.91009 -1.45297 19084 ft 438 kts 52°
2026-05-08 17:37 38.92866 -1.42209 18617 ft 436 kts 52°
2026-05-08 17:38 38.94713 -1.39134 18126 ft 433 kts 52°
2026-05-08 17:38 38.96547 -1.36077 17618 ft 430 kts 52°
2026-05-08 17:38 38.98366 -1.33043 17129 ft 427 kts 52°
2026-05-08 17:38 39.00169 -1.30033 16663 ft 423 kts 52°
2026-05-08 17:39 39.01956 -1.27047 16210 ft 420 kts 52°
2026-05-08 17:39 39.03730 -1.24083 15751 ft 416 kts 51°
2026-05-08 17:39 39.05487 -1.21146 15296 ft 412 kts 52°
2026-05-08 17:39 39.07229 -1.18238 14857 ft 408 kts 52°
2026-05-08 17:40 39.08934 -1.15387 14403 ft 398 kts 51°
2026-05-08 17:40 39.10601 -1.12595 13960 ft 388 kts 51°
2026-05-08 17:40 39.12227 -1.09870 13529 ft 383 kts 51°
2026-05-08 17:40 39.13848 -1.07153 13063 ft 382 kts 51°
2026-05-08 17:41 39.15450 -1.04463 12610 ft 374 kts 51°
2026-05-08 17:41 39.17010 -1.01841 12185 ft 364 kts 51°
2026-05-08 17:41 39.18532 -0.99281 11772 ft 354 kts 51°
2026-05-08 17:41 39.20011 -0.96792 11388 ft 345 kts 51°
2026-05-08 17:42 39.21448 -0.94372 11032 ft 336 kts 51°
2026-05-08 17:42 39.22830 -0.92041 10946 ft 317 kts 51°
2026-05-08 17:42 39.24124 -0.89856 10936 ft 298 kts 51°
2026-05-08 17:42 39.25353 -0.87784 10940 ft 285 kts 51°
2026-05-08 17:43 39.26546 -0.85771 10905 ft 281 kts 51°
2026-05-08 17:43 39.27750 -0.83738 10576 ft 290 kts 51°
2026-05-08 17:43 39.29018 -0.81717 10222 ft 288 kts 40°
2026-05-08 17:43 39.30748 -0.80590 9849 ft 276 kts
2026-05-08 17:44 39.32566 -0.80946 9468 ft 261 kts 329°
2026-05-08 17:44 39.34102 -0.82142 9113 ft 257 kts 325°
2026-05-08 17:44 39.35678 -0.83258 8728 ft 260 kts 330°
2026-05-08 17:44 39.37326 -0.84220 8294 ft 267 kts 334°
2026-05-08 17:45 39.39081 -0.85054 7998 ft 267 kts 339°
2026-05-08 17:45 39.40825 -0.85721 7961 ft 257 kts 342°
2026-05-08 17:45 39.42523 -0.86229 7963 ft 244 kts 345°
2026-05-08 17:45 39.44157 -0.86581 7963 ft 235 kts 348°
2026-05-08 17:46 39.45777 -0.86830 7908 ft 235 kts 352°
2026-05-08 17:46 39.47414 -0.86973 7665 ft 240 kts 355°
2026-05-08 17:46 39.49084 -0.87001 7409 ft 239 kts 359°
2026-05-08 17:46 39.50741 -0.86908 7153 ft 238 kts
2026-05-08 17:47 39.52402 -0.86695 6714 ft 242 kts
2026-05-08 17:47 39.54077 -0.86357 6292 ft 245 kts 11°
2026-05-08 17:47 39.55755 -0.85890 5798 ft 249 kts 14°
2026-05-08 17:47 39.56889 -0.85510 5561 ft 247 kts 16°
2026-05-08 17:48 39.59007 -0.84658 5261 ft 235 kts 21°
2026-05-08 17:48 39.60495 -0.83910 5104 ft 223 kts 26°
2026-05-08 17:48 39.61709 -0.82723 5015 ft 218 kts 62°
2026-05-08 17:48 39.62001 -0.80890 5001 ft 208 kts 105°
2026-05-08 17:49 39.61309 -0.79282 5022 ft 208 kts 129°
2026-05-08 17:49 39.60461 -0.77730 4892 ft 214 kts 124°
2026-05-08 17:49 39.59665 -0.76095 4609 ft 214 kts 121°
2026-05-08 17:49 39.58954 -0.74430 4345 ft 208 kts 118°
2026-05-08 17:50 39.58305 -0.72778 4071 ft 203 kts 116°
2026-05-08 17:50 39.57683 -0.71159 3808 ft 199 kts 116°
2026-05-08 17:50 39.57075 -0.69566 3545 ft 195 kts 116°
2026-05-08 17:50 39.56480 -0.68004 3278 ft 192 kts 115°
2026-05-08 17:51 39.55894 -0.66469 3025 ft 188 kts 115°
2026-05-08 17:51 39.55319 -0.64960 2764 ft 185 kts 115°
2026-05-08 17:51 39.54757 -0.63480 2524 ft 182 kts 114°
2026-05-08 17:51 39.54206 -0.62035 2288 ft 175 kts 115°
2026-05-08 17:52 39.53849 -0.61094 2104 ft 176 kts 116°
2026-05-08 17:52 39.53311 -0.59685 1909 ft 175 kts 115°
2026-05-08 17:52 39.52302 -0.57040 1654 ft 157 kts 115°
2026-05-08 17:53 39.51822 -0.55783 1414 ft 151 kts 115°
2026-05-08 17:53 39.51372 -0.54583 1060 ft 147 kts 114°
2026-05-08 17:53 39.50924 -0.53408 870 ft 144 kts 114°
2026-05-08 17:53 39.50483 -0.52242 696 ft 145 kts 113°
2026-05-08 17:54 39.50035 -0.51041 480 ft 151 kts 115°
2026-05-08 17:54 39.49556 -0.49805 265 ft 153 kts 114°
2026-05-08 17:54 39.49121 -0.48656 216 ft 125 kts 116°
2026-05-08 17:54 39.48823 -0.47861 207 ft 52 kts 117°
2026-05-08 17:55 39.48695 -0.47532 203 ft 33 kts 116°
2026-05-08 17:55 39.48653 -0.47305 189 ft 25 kts 77°
2026-05-08 17:55 39.48697 -0.47207 186 ft 6 kts 38°
2026-05-08 17:55 39.48733 -0.47183 186 ft 6 kts 16°
2026-05-08 17:56 39.48775 -0.47181 183 ft 6 kts 347°
2026-05-08 17:56 39.48813 -0.47202 187 ft 6 kts 336°
2026-05-08 17:56 39.48852 -0.47224 189 ft 7 kts 337°
2026-05-08 17:56 39.48903 -0.47254 191 ft 9 kts 326°
2026-05-08 17:57 39.48932 -0.47303 193 ft 5 kts 297°
2026-05-08 17:57 39.48949 -0.47314 193 ft 2 kts 26°
2026-05-08 17:57 39.48977 -0.47301 190 ft 6 kts 14°
2026-05-08 17:57 39.49019 -0.47289 194 ft 6 kts 13°
2026-05-08 17:58 39.49032 -0.47285 190 ft 0 kts 14°